STARLINK-34314, 64146

Orbit data source: Space-Track

STARLINK-34314, 64146 is a payload satellite owned by SpaceX/Seattle (US) in SSO that was launched on Tue, 27 May 2025 UTC via an FALCON 9 launch vehicle from the Air Force Western Test Range (AFWTR). Payload-class satellites include a variety of spacecraft equipped with specific instruments for various scientific and technological missions. These include communications satellites like Starlink; space stations such as the ISS; scientific satellites like the Hubble; Earth observation satellites from companies like Planet Labs, Umbra, and HawkEye 360; GPS; miniature CubeSats for education and research; and military/defense satellites.

Loading next visibility...
Identifier
64146, 2025-112A
Orbit
SSO
Country
Flag of USUS
Related business
Manufacturer
SpaceX/Seattle
Mission
Operational Commercial Communications
Bus & Motor
STARLINK V2MO, Unknown motor
Mass
575 kg wet, ~530 kg dry
Launch date (UTC)
2025-05-27 (1 year ago)
Launch vehicle
FALCON 9
Launch site
Air Force Western Test Range (AFWTR)
Object type
Payload
Rocket body
Debris
Shape & HBR
Box + 1 Pan, 17.7 m
Radar Cross Section
41.120 m², Large (>1 m²)

Expand to show TLE details & history
Last TLE update: 13 hours ago

TLE from 13 hours ago
0 STARLINK-34314
1 64146U 25112A   26236.60396145  .00018334  00000-0  56854-3 0  9995
2 64146  97.2852 284.0160 0000573  55.4000 304.7297 15.33462365 68628
Epoch: 2026-08-24T14:29Z
TLE epoch observation values (Epoch: 2026-08-24T14:29:42.269Z)
Latitude
0.00002°
Longitude
93.70659°
Altitude
468.38 km
Speed
7.632 km/s
True Right ascension
18h 56m 03s
True Declination
0° 00' 00"
Sunlit
Object was in full shadow at epoch
Visualization orbit readout
Latitude
Unknown
Longitude
Unknown
Altitude
Unknown
Speed
Unknown
Apparent Right ascension
Unknown
Apparent Declination
Unknown
Sunlit
N/A
Visualization observer readout
Local Sidereal Time
18:44:46
Azimuth
Unknown
Elevation
Unknown
Doppler factor
Unknown
Orbital elements
Apogee altitude
462.826 km
Perigee altitude
462.042 km
Semi-major axis
6,840.571 km
Eccentricity
0.00006
Inclination
97.2852°
RAAN
284.016°
Arg. of periapsis
55.4°
True anomaly
304.7243°
Mean anomaly
304.7297°
Eccentric anomaly
304.727°
Mean motion
3.83623 °/min
Orbital period
93.84 mins
BSTAR
0.00056854
Loading maneuver chart data...
Computing Atmospheric mass density...
Loading historical data...
Loading historical data...
Loading historical data...
Loading historical data...
Loading historical data...
Loading historical data...
Loading historical data...

Documentation

Showing up to 5 results
|